COSMOS 2344

导读

COSMOS 2344(宇宙2344)是独联体(CIS)发射的军用卫星,于1997年6月6日发射入轨,隶属于苏联/俄罗斯"宇宙"系列卫星项目,该系列是苏联/俄罗斯最大的卫星系列,涵盖多种军事应用任务。 这颗卫星当前运行在近地点约1196千米、远地点约3047千米的中地球轨道,轨道倾角63.3°,属于军事航天侦察或信号情报类卫星,承担空间态势感知相关任务,至今仍在轨道保持运行。

基本信息
目录编号:
24827
目录名称:
COSMOS 2344
国际标识:
1997-028A
轨道中心:
EARTH
卫星名称:
COSMOS 2344
卫星全名:
--
卫星状态:
在轨 (已飞行10630 天)
发射日期:
1997-06-06 UTC
国别 :
俄罗斯(独联体) (CIS)
星等 :
--
轨道信息
数据来源 国际轨道数据 AOE轨道数据
星历时间 2026-07-13T18:25:06+0800
20小时前
查看轨道信息
2026-07-13T19:00:00+0800
19小时前
查看轨道信息
半长轴 8499.331km 8499.329km
偏心率 0.1091368 0.1091438
轨道倾角 63.300° 63.299°
近地点辐角 70.040° 70.045°
升交点赤经 161.793° 161.752°
平近点角 98.142° 194.800°
近地点 1193.604km 1193.542km
远地点 3048.784km 3048.842km
周期 129.968分钟 129.968分钟
每日圈数 11.079641 11.079645
详细信息
使用方式:
暂无
2D轨道图
3D轨道图
轨道高度分析图
轨道倾角分析图
轨道综合分析图
查看轨道综合分析图